Theta_e
307 307 307 307 306 306 307 307 306 306 306 306 306 306 306 306 306 306 306 306 307 307 307 308 308 308 308 308 308 308 306 303 303 305 308 309 303 306 308 310 314 312 310 310 310 314 314 309 310 312 312 315 316 318 317 317 319 316 316 314 313 313 314 317 318 318 317 318 321 322 323 319 334 351 352 352 353 354 354 353 353 352 352 351 350 348 346 346
307 307 307 307 307 307 307 306 306 306 306 306 305 306 305 305 306 306 306 307 307 307 307 307 307 308 307 308 308 308 305 303 306 308 310 304 304 306 305 309 314 312 310 310 309 312 315 311 309 311 312 316 317 317 317 318 318 317 318 315 313 315 315 316 317 318 316 317 319 320 324 320 331 348 350 354 357 355 357 356 354 354 353 351 349 347 346 345
307 307 307 307 306 306 306 306 306 306 305 305 305 305 305 305 306 306 306 307 307 307 307 307 307 307 307 308 308 306 304 305 310 313 309 303 306 305 305 310 314 312 310 309 307 311 314 312 309 310 312 317 319 318 318 318 318 317 317 315 314 316 315 316 317 317 316 316 320 320 322 322 325 339 350 355 357 356 358 357 356 357 354 352 349 348 346 345
307 307 307 307 306 306 306 306 306 306 305 305 305 305 305 305 306 306 306 307 307 307 307 307 307 307 307 307 307 305 304 308 313 311 306 306 306 306 307 310 314 313 310 310 308 308 310 309 308 310 312 316 318 318 317 317 317 316 316 315 316 316 315 317 316 316 317 316 320 320 320 324 321 334 350 355 357 358 357 355 356 355 354 353 350 348 346 344
307 307 307 306 306 306 306 306 306 306 305 305 305 305 305 305 306 306 306 306 307 307 307 307 307 307 307 307 305 304 307 309 307 310 309 310 307 306 307 310 314 312 310 312 309 306 306 307 309 311 313 317 318 317 318 318 316 316 315 316 316 315 316 316 317 317 317 317 321 320 318 321 320 334 348 353 357 359 355 353 354 353 354 352 350 348 345 344
307 307 307 306 306 306 306 306 306 306 305 305 305 305 305 305 306 306 306 306 306 306 306 307 306 307 306 306 304 305 311 308 307 312 310 312 310 306 307 310 313 312 312 311 307 306 306 308 310 312 315 317 318 317 318 317 314 316 315 315 316 315 316 315 316 318 319 320 320 319 317 318 328 339 343 348 353 354 352 352 353 352 353 352 351 348 345 344
307 307 307 307 306 306 306 306 306 306 305 305 305 305 305 305 305 305 306 306 306 306 306 306 306 306 306 305 305 308 312 312 309 310 309 311 311 307 306 310 312 311 311 309 306 306 307 309 311 313 314 315 317 317 316 316 314 315 315 315 316 315 316 315 316 318 320 322 319 319 318 320 336 345 345 351 352 352 351 351 351 352 352 351 349 347 345 344
307 307 307 307 307 306 306 306 306 305 305 305 305 305 305 305 305 305 305 306 306 306 305 306 306 306 306 305 307 310 311 313 308 308 310 310 311 309 306 309 311 310 309 308 306 306 307 309 311 312 314 315 317 316 315 315 314 315 314 315 316 316 317 315 317 319 320 321 319 321 318 322 339 346 348 354 352 351 351 349 351 351 351 349 347 346 345 344
307 307 307 307 307 306 306 306 305 305 305 305 305 305 305 305 305 305 305 305 305 306 305 305 306 305 305 305 308 310 309 309 305 307 308 308 311 311 309 309 311 310 309 308 307 306 307 309 311 312 314 315 315 316 315 314 315 316 315 314 315 316 316 317 318 319 321 320 321 320 318 325 338 346 348 352 350 350 350 350 351 350 349 347 346 346 345 344
307 307 307 307 307 307 306 306 305 305 305 305 305 304 305 305 305 305 305 305 305 305 305 305 305 305 304 305 308 310 307 306 306 307 309 309 309 310 312 311 310 311 309 309 308 306 307 309 311 311 312 314 314 315 315 314 316 316 314 314 315 316 315 317 319 319 320 320 321 319 319 321 328 342 348 349 349 349 349 350 350 348 348 346 345 345 344 344
307 307 307 307 307 307 307 306 305 305 305 305 305 304 304 305 305 305 305 305 305 305 305 305 305 305 304 305 308 310 307 308 308 309 311 311 309 308 310 309 310 310 309 308 307 307 307 307 309 310 310 312 313 314 313 314 315 314 314 314 315 316 314 315 317 319 319 318 320 319 320 318 320 340 349 348 349 348 350 350 349 348 347 346 345 345 344 343
306 307 307 306 306 307 307 306 306 305 305 304 304 305 304 304 305 305 305 305 305 305 305 305 305 304 304 305 306 309 309 311 310 309 310 311 310 308 308 307 307 308 308 307 307 307 307 307 308 309 310 311 311 313 314 315 314 314 314 313 316 316 315 316 316 319 319 317 321 318 318 319 324 340 347 346 349 348 349 350 349 349 347 347 346 345 344 343
305 306 306 306 306 306 307 307 306 305 305 304 305 304 303 303 304 304 305 304 304 305 305 305 305 304 305 307 307 304 307 309 307 306 307 309 309 310 310 308 307 308 308 306 306 307 307 308 308 309 310 309 310 311 313 313 312 314 314 313 316 315 315 318 315 317 318 317 321 316 317 323 327 338 347 347 348 348 349 350 348 348 347 347 347 345 343 342
305 305 306 306 306 306 307 307 306 305 305 305 304 304 303 302 302 304 304 304 304 305 304 304 304 304 304 306 304 300 303 304 303 303 305 307 305 308 311 310 310 311 310 306 306 307 307 308 308 309 309 309 310 310 310 311 312 313 313 315 316 314 318 322 316 316 317 316 320 316 317 323 324 334 347 346 346 348 349 350 348 347 347 346 346 345 343 341
304 305 305 306 306 306 307 306 306 306 305 305 304 304 303 301 302 303 303 304 304 304 304 304 303 304 305 304 302 302 304 305 306 303 304 305 303 305 310 312 312 312 311 309 307 306 307 308 308 309 309 310 310 310 311 311 314 313 311 317 317 312 319 324 316 316 317 316 318 316 317 318 318 329 344 346 345 348 348 349 347 346 347 346 346 344 342 339
302 303 304 305 305 305 306 306 306 305 305 305 304 303 302 301 301 301 302 303 303 304 304 304 302 303 307 306 302 304 305 307 308 305 305 305 304 306 308 310 311 312 312 310 309 308 309 308 309 309 309 310 309 310 311 311 318 321 314 316 317 311 315 319 315 317 317 315 316 316 317 317 320 332 343 345 345 347 349 348 347 347 347 347 345 342 339 338
302 302 303 304 304 305 305 305 305 305 305 305 304 304 302 300 300 301 302 302 302 303 303 304 303 303 307 305 304 307 306 307 307 307 308 307 307 306 306 308 310 313 313 312 311 311 312 311 311 312 309 310 310 310 311 310 315 321 316 315 317 313 313 314 315 317 314 316 318 315 320 323 329 341 344 344 345 347 348 348 348 348 346 344 342 340 338 338
301 302 302 303 303 304 305 305 305 306 305 304 304 303 301 300 301 303 303 302 303 303 303 304 303 304 308 306 306 307 306 306 307 308 309 309 308 306 306 307 309 313 314 313 313 312 313 313 312 312 311 310 311 311 312 312 313 316 315 313 315 314 313 313 315 315 314 317 316 315 327 334 337 344 345 344 346 348 348 348 347 345 342 341 340 339 338 338
301 302 302 302 303 303 304 305 305 305 305 304 304 302 301 300 302 304 304 303 304 305 305 305 304 305 308 307 306 307 306 307 308 308 310 310 309 307 307 307 307 311 313 312 313 312 313 313 312 312 311 310 311 311 311 314 314 315 315 315 314 312 312 314 314 316 316 315 317 327 339 344 342 342 342 341 344 347 346 345 343 341 340 339 340 340 339 339
301 302 301 302 303 303 303 304 305 305 305 304 303 302 302 303 307 307 304 303 304 305 304 305 304 305 305 305 306 307 306 307 308 309 310 310 309 308 308 307 306 308 311 312 313 312 313 314 313 311 311 310 310 312 312 313 313 313 314 313 313 311 312 313 313 316 314 314 326 339 345 346 344 343 340 338 342 345 343 342 342 340 340 340 340 340 338 338
300 301 301 301 303 302 301 303 304 305 304 304 303 302 303 305 308 307 304 304 304 304 304 303 304 304 305 304 305 305 305 306 308 308 309 310 308 308 308 307 306 306 309 312 312 313 313 314 313 311 312 311 310 314 315 315 313 312 312 312 312 311 311 312 314 315 315 324 335 342 346 344 344 343 342 341 343 343 341 342 342 341 341 340 339 337 336 336
300 300 300 301 302 302 301 302 304 304 304 304 303 302 302 303 304 303 303 304 304 304 304 304 303 303 303 304 304 304 304 305 306 307 308 309 308 308 307 306 306 305 308 312 313 313 313 313 313 312 312 313 312 314 316 315 314 312 311 312 312 312 312 313 316 312 317 336 342 343 345 344 341 341 341 342 341 341 340 340 341 341 340 339 338 336 335 334
300 300 300 301 302 302 302 302 304 304 304 304 303 302 302 301 301 302 303 304 305 304 305 305 305 304 304 305 305 304 303 304 305 306 307 308 307 307 307 305 305 305 306 310 313 314 313 312 313 314 313 313 313 314 314 314 314 314 313 312 311 311 312 313 315 314 321 339 343 341 344 342 340 341 340 339 339 338 338 337 338 338 338 337 335 334 333 332
300 300 300 300 301 302 302 302 303 304 304 303 303 303 302 301 301 302 303 304 305 305 305 306 306 305 305 306 306 304 303 303 304 306 307 308 307 307 306 305 305 304 305 309 312 313 313 312 313 314 313 313 314 314 314 314 313 313 313 312 311 312 313 313 315 324 332 339 340 339 342 341 340 343 342 338 337 337 335 335 335 334 334 334 333 332 332 331
300 300 300 301 301 301 302 302 303 303 303 303 303 302 301 301 302 302 303 305 306 305 304 305 306 306 306 307 307 305 304 304 305 306 307 308 307 307 306 305 305 304 305 308 310 312 313 313 313 313 313 313 313 313 313 313 312 312 313 311 311 312 315 314 314 328 340 342 338 337 344 343 338 341 344 339 337 337 335 334 334 334 333 331 331 331 330 330
300 300 300 300 301 301 302 303 303 303 303 303 302 301 302 302 302 303 303 305 307 305 303 304 305 307 307 307 307 305 305 306 306 306 307 308 307 307 305 305 305 304 306 309 310 312 313 313 313 313 314 313 313 312 311 312 311 311 314 313 312 312 315 315 314 327 340 341 337 332 340 345 340 339 341 338 337 337 334 334 333 333 332 331 331 330 328 328
300 300 300 300 300 301 302 302 302 302 302 303 302 302 303 303 303 304 304 308 310 306 304 304 305 307 308 308 306 305 307 309 307 306 307 308 307 306 305 304 305 305 307 310 311 312 313 313 313 314 314 312 312 312 310 311 310 310 314 315 314 313 315 315 314 320 328 332 334 331 335 343 344 341 338 336 337 337 334 334 333 332 332 331 330 329 328 327
300 300 300 300 300 301 302 302 302 302 302 302 302 301 302 302 304 303 303 311 313 305 305 305 305 307 307 308 307 305 308 309 308 308 307 308 307 305 305 304 305 307 308 311 311 313 313 313 313 313 313 312 311 312 311 310 310 310 313 315 316 315 316 317 315 316 322 329 332 333 334 340 341 339 336 336 338 339 336 334 333 333 332 330 329 328 326 326
301 301 301 301 301 301 302 302 302 302 301 300 300 301 302 303 304 304 305 312 310 303 306 306 305 307 306 307 307 305 306 307 308 310 307 307 307 305 305 305 306 308 309 311 313 314 313 313 313 312 313 312 311 312 311 309 310 312 313 315 315 316 316 317 316 316 323 331 331 331 334 338 340 339 338 338 339 339 337 333 332 332 330 328 327 327 325 325
301 301 301 301 301 301 302 302 302 302 300 300 301 302 303 304 305 306 308 313 309 304 306 305 306 307 306 306 306 305 306 306 307 309 307 307 307 306 305 305 307 309 310 312 313 314 313 313 314 312 312 312 311 312 311 309 311 313 315 314 313 319 319 316 322 324 326 329 327 327 331 334 339 340 338 337 338 337 334 333 332 331 329 328 326 325 325 324
301 302 301 300 301 301 302 302 302 302 301 300 301 302 304 305 306 307 309 310 308 306 305 305 306 306 306 306 306 305 306 306 306 308 309 308 306 306 307 305 305 307 310 312 313 312 312 313 313 312 312 312 311 311 311 310 311 312 315 312 313 322 319 312 317 320 323 326 323 324 327 326 335 340 337 335 335 333 332 333 332 331 329 327 325 324 323 322
300 301 301 300 301 302 302 302 302 302 301 301 302 304 306 306 305 307 308 308 309 308 305 306 305 305 306 305 306 306 305 306 306 307 308 308 307 306 306 306 305 307 310 312 313 313 313 312 312 312 314 313 311 311 310 311 311 310 313 313 314 318 315 312 315 317 322 325 322 323 325 326 335 338 335 335 333 330 331 331 330 330 328 326 324 323 322 321
299 300 300 301 301 301 301 301 301 302 302 302 303 306 308 306 305 306 306 308 311 310 310 309 305 305 306 305 306 306 305 306 306 307 308 307 308 306 306 307 308 310 314 315 315 314 313 313 312 311 313 313 311 311 310 310 311 310 311 314 315 316 314 314 317 319 321 322 321 323 324 330 339 336 332 334 331 329 330 329 328 327 325 324 323 321 321 320
298 298 299 299 299 300 300 299 300 302 301 302 304 308 308 306 307 307 307 308 310 312 313 311 306 305 305 305 306 306 306 307 305 306 307 307 307 307 307 307 306 310 317 318 315 315 315 316 315 312 312 314 312 311 311 312 312 311 313 316 317 319 320 317 319 320 317 318 326 330 329 335 340 335 330 330 329 328 329 327 326 325 323 322 321 320 320 318
298 298 299 299 299 299 299 299 301 301 301 303 306 307 306 305 307 309 310 310 311 312 313 313 309 305 305 305 305 306 306 306 306 305 307 307 307 308 307 306 307 308 313 318 316 314 314 316 318 314 313 314 312 311 311 311 312 311 314 316 314 319 325 320 322 330 325 326 336 338 335 334 335 332 328 327 327 327 327 325 324 322 321 320 320 319 319 318
298 299 300 300 300 299 300 301 301 300 301 304 307 306 306 305 306 308 310 309 310 311 312 316 312 304 305 305 304 306 305 306 307 305 307 308 307 307 307 306 308 306 311 320 320 316 316 318 319 314 314 315 312 313 311 311 316 315 312 314 312 318 329 322 317 323 326 329 334 335 336 334 333 331 328 327 328 327 326 324 322 321 320 319 319 318 317 317
298 299 300 300 301 301 301 302 301 300 302 304 306 306 305 305 305 307 308 308 308 309 313 318 317 307 305 306 305 305 304 305 306 306 308 310 308 309 308 307 308 307 309 316 318 321 325 324 320 314 314 315 312 313 312 312 320 316 310 313 313 315 326 330 322 318 322 331 334 333 337 336 335 335 330 328 329 327 325 323 321 320 319 318 318 317 317 317
298 299 300 301 300 301 302 302 301 301 303 304 305 306 304 305 305 305 306 307 307 310 314 317 320 314 307 306 306 305 304 305 306 307 309 311 311 310 308 308 309 308 308 310 314 320 322 319 319 316 314 315 312 312 314 313 316 316 312 315 316 315 318 323 322 318 322 333 335 334 336 336 335 334 332 331 330 327 325 322 321 320 319 318 317 317 316 316
298 299 303 302 300 301 302 301 301 302 304 305 305 305 304 304 305 305 305 305 306 313 317 317 318 317 314 310 308 305 304 305 306 307 308 309 312 312 309 309 309 308 308 308 311 318 319 316 319 317 313 315 313 312 313 313 314 315 315 313 315 320 319 317 318 319 324 333 335 336 337 337 335 331 330 331 328 326 324 322 321 320 318 318 317 316 316 316
298 301 304 303 301 302 301 301 303 303 305 306 305 304 304 303 304 304 305 305 307 314 320 318 316 319 319 316 313 309 305 305 306 308 308 309 311 311 309 309 309 309 309 307 310 317 316 316 323 325 315 313 316 314 314 316 316 315 315 313 312 314 316 317 318 317 324 335 336 336 337 337 335 331 329 329 327 325 323 321 320 319 317 317 316 316 316 316
299 302 304 302 302 302 301 302 304 305 305 305 304 303 303 304 304 304 305 306 308 311 316 316 316 317 318 318 320 316 309 306 305 307 309 309 309 311 309 308 310 309 309 308 308 313 316 319 329 329 316 311 315 317 316 317 317 317 317 317 316 315 315 318 319 316 323 335 335 334 336 335 331 329 328 327 326 323 322 320 319 318 316 316 315 316 316 316
300 303 304 302 302 302 302 304 305 304 305 305 305 304 304 304 305 305 305 306 308 310 312 313 314 315 317 318 318 316 314 312 306 306 311 310 309 311 310 309 310 308 310 310 307 315 326 325 324 323 318 316 316 316 316 316 315 317 317 316 318 320 317 317 324 326 325 329 329 334 341 335 328 328 328 327 325 323 320 319 318 317 316 315 315 315 316 316
301 303 303 302 302 302 303 305 305 305 306 305 304 304 304 305 305 306 306 306 307 310 313 313 313 314 316 316 316 316 318 317 311 307 310 310 308 309 309 309 309 308 310 310 309 317 326 322 317 319 319 316 315 314 315 315 313 314 316 315 316 321 322 327 340 339 330 330 333 339 343 335 328 329 328 325 323 321 319 317 316 316 315 315 315 315 316 316
301 303 305 303 303 303 303 306 307 307 307 306 306 307 306 306 306 307 307 308 308 309 312 313 313 315 317 315 316 317 318 320 316 309 310 311 309 308 309 308 309 309 309 312 314 314 318 321 320 319 318 315 314 314 313 313 313 316 321 319 317 321 322 325 332 328 325 330 332 335 338 331 327 328 325 322 320 318 317 316 315 315 315 315 315 315 315 314
303 305 307 305 304 304 305 305 306 307 307 307 307 308 308 308 308 307 308 309 308 308 311 312 312 316 317 315 316 317 317 319 319 315 315 315 312 310 308 307 309 309 310 318 320 314 320 331 333 329 323 319 321 324 324 321 316 316 320 319 318 319 317 319 322 318 318 325 328 332 335 329 326 325 322 320 319 317 317 316 315 315 315 314 315 314 314 313
304 305 306 307 306 306 306 305 306 307 307 308 308 309 309 310 310 308 309 310 309 309 311 311 311 314 317 317 319 320 318 316 317 317 318 318 318 313 308 308 309 308 314 325 325 320 326 332 336 339 330 324 332 337 331 324 317 314 316 317 318 319 318 323 325 321 321 327 331 332 331 329 327 325 322 320 319 317 317 315 315 314 314 314 314 313 312 312
305 306 306 306 306 306 306 305 306 306 307 308 309 310 309 309 310 311 310 311 310 311 314 314 312 313 317 318 320 322 321 320 320 320 319 320 321 317 310 309 308 310 321 327 321 324 328 321 324 335 330 326 333 331 323 319 315 314 316 316 319 324 323 320 322 325 327 328 331 329 327 329 328 324 322 320 318 317 316 315 315 314 314 314 313 313 312 311
307 308 308 306 306 307 307 306 306 306 307 308 310 311 310 309 311 312 313 312 311 312 317 319 316 314 316 317 319 320 322 324 325 323 321 322 323 322 319 313 309 314 323 323 319 326 330 323 323 328 325 325 329 328 331 332 324 324 329 324 321 324 323 320 326 331 327 323 329 328 327 329 327 323 322 319 317 317 315 314 314 313 314 313 313 312 311 310
307 308 309 308 308 309 309 309 308 309 310 310 312 313 312 311 311 313 313 313 314 314 316 318 318 316 316 318 320 322 322 323 324 322 321 324 325 325 325 321 317 317 318 318 319 324 327 326 328 330 327 326 329 330 336 337 330 331 335 333 332 331 331 334 337 332 329 328 330 326 326 327 324 322 320 318 316 315 314 314 314 313 314 313 312 312 311 310
307 308 309 308 308 310 311 311 311 311 312 312 313 314 313 312 313 313 312 313 315 316 316 317 317 317 318 320 322 323 323 321 322 321 321 326 327 325 324 323 321 321 322 321 317 318 324 325 331 338 332 326 327 329 330 332 332 331 329 328 332 333 332 333 332 328 329 329 326 325 326 325 321 319 318 316 315 315 314 314 314 313 314 313 312 311 310 309
306 307 308 307 308 310 311 311 311 311 312 312 312 314 313 313 313 312 312 313 314 315 316 316 316 317 321 323 323 325 324 322 322 322 323 326 326 323 324 324 321 321 327 326 319 320 330 332 333 339 334 327 328 328 328 330 331 332 331 327 327 329 330 329 327 325 326 326 325 326 326 323 320 317 316 315 315 314 314 314 314 314 313 312 311 310 309 309
304 306 307 307 308 309 309 309 310 310 311 311 312 312 312 313 313 312 313 315 314 314 315 315 315 317 320 323 325 327 325 322 323 325 326 326 324 321 323 322 320 319 322 327 329 329 334 338 336 336 334 330 328 329 333 335 332 331 329 324 323 324 326 327 327 324 323 323 325 326 325 321 318 317 316 315 315 314 314 314 314 313 312 311 311 310 309 308
Wind_Speed
12 12 12 11 11 11 11 11 11 12 12 12 13 13 14 14 15 14 14 14 15 15 15 15 16 17 18 19 20 21 22 22 22 17 11 21 22 15 11 11 7 5 9 11 7 5 2 3 5 5 2 1 1 2 3 4 3 2 2 3 4 4 4 4 4 4 3 7 8 7 4 6 9 7 6 9 14 17 15 13 14 16 16 19 27 34 34 35
12 12 12 12 12 12 11 11 11 12 12 13 13 14 14 14 15 15 15 15 15 15 14 15 16 17 18 19 20 20 22 23 19 16 24 27 20 17 17 15 8 6 10 13 11 8 4 3 5 4 3 0 2 2 2 2 2 3 3 3 5 4 3 3 4 6 5 8 9 7 6 2 10 8 4 7 11 17 18 12 16 19 17 22 27 29 28 31
13 12 12 12 12 12 12 12 11 12 12 13 13 14 14 14 15 15 14 15 14 14 14 15 16 16 18 19 19 20 21 18 10 14 28 25 21 21 18 17 12 10 12 11 9 10 7 2 3 3 3 1 3 2 2 3 2 3 4 3 5 4 3 6 6 8 9 9 8 7 6 1 6 7 6 11 12 15 17 13 16 18 18 20 21 22 24 25
14 13 12 12 12 12 12 12 12 12 13 13 14 14 15 15 15 14 14 14 14 14 14 14 16 17 18 19 18 18 16 9 4 11 20 17 22 23 19 20 15 14 15 10 8 9 8 4 4 1 3 2 3 2 2 3 2 2 4 4 5 3 4 7 6 10 12 8 5 6 6 5 2 6 11 16 13 8 11 14 19 21 20 21 19 19 21 21
15 14 13 12 12 12 12 12 12 12 13 13 14 15 15 15 15 15 14 14 14 14 15 15 16 17 18 19 18 15 8 2 3 5 8 10 20 24 22 21 17 18 16 11 9 7 7 3 1 1 2 3 3 1 4 6 3 2 3 5 6 4 5 8 7 10 10 6 3 5 6 5 4 6 12 16 13 7 9 13 19 22 20 20 19 18 18 18
16 16 14 13 12 12 12 12 13 12 14 14 14 15 15 15 15 14 14 14 14 14 14 14 16 17 19 20 14 7 1 1 5 6 5 5 12 23 25 21 19 20 17 13 9 4 3 3 2 2 2 4 4 4 5 5 3 3 5 4 7 7 6 7 6 9 5 3 5 4 3 3 5 6 5 10 11 10 13 16 18 19 19 21 20 18 16 14
17 16 15 15 13 13 13 12 13 13 14 14 14 15 15 15 15 15 14 14 14 14 14 14 16 16 19 18 7 2 1 6 9 5 8 7 2 19 27 23 22 21 18 14 8 5 3 4 4 3 2 4 5 6 6 4 4 5 6 5 7 7 8 7 6 10 6 3 4 3 4 5 7 6 5 10 13 15 17 17 18 18 19 21 18 16 15 14
16 16 16 15 14 13 13 12 12 13 14 13 15 16 15 15 15 15 14 14 14 14 13 14 14 15 18 14 4 1 1 11 15 4 6 7 4 12 25 24 22 21 17 16 12 7 4 4 6 3 2 6 5 5 5 4 4 6 8 8 6 6 8 7 7 10 8 4 4 5 7 6 7 8 10 13 16 17 17 16 17 18 17 18 17 16 14 12
17 16 16 15 14 14 13 13 13 13 13 14 15 15 16 16 15 15 14 13 13 12 13 13 14 15 15 9 1 1 7 20 22 10 5 5 1 8 20 22 22 20 16 16 13 8 5 5 6 5 4 5 4 5 3 2 3 6 9 9 7 7 7 5 6 8 5 3 4 7 6 6 8 9 11 12 17 16 16 17 16 17 16 16 16 15 13 11
19 17 16 16 15 14 13 13 13 13 13 14 15 15 16 16 15 15 14 14 12 12 12 11 12 14 12 6 1 2 8 14 15 9 7 6 5 11 18 21 23 23 16 13 13 10 7 7 5 3 3 4 5 5 1 4 4 5 5 7 8 8 6 4 5 7 3 2 3 1 4 5 5 5 7 8 16 18 16 16 13 16 16 15 15 13 12 11
19 18 17 16 16 15 14 13 13 13 13 14 14 15 16 16 15 15 14 14 12 12 11 11 12 12 10 6 1 5 4 5 7 1 1 3 8 13 18 20 21 24 20 12 13 17 15 12 3 2 2 3 4 4 4 5 5 6 6 6 8 8 7 3 4 6 2 1 4 5 3 2 3 7 11 10 13 17 18 16 13 15 14 14 15 12 11 11
18 19 18 17 16 15 14 14 13 13 13 14 14 15 16 16 16 15 14 13 12 11 11 11 10 10 8 4 6 15 8 11 6 4 2 2 8 12 15 18 19 22 22 12 13 21 21 16 3 1 4 2 3 3 5 6 4 6 5 3 8 5 5 5 4 5 4 2 4 7 2 7 3 10 15 12 11 14 18 17 14 14 13 13 13 11 9 11
17 18 18 18 17 15 15 14 13 13 13 14 15 16 17 17 16 15 14 13 12 12 11 10 9 9 5 2 15 26 17 9 13 18 11 7 10 12 14 18 18 17 20 17 17 21 21 17 6 3 4 2 3 4 5 5 3 5 3 3 4 4 4 6 4 5 5 5 5 7 0 7 1 12 15 13 13 15 15 14 13 12 12 12 11 11 9 10
18 17 17 18 18 16 15 14 14 13 13 14 15 17 19 18 17 16 15 14 13 12 11 10 9 7 2 6 21 26 23 23 27 28 20 14 15 13 14 19 21 17 17 20 21 19 19 16 8 4 4 2 5 7 8 6 3 4 3 1 1 1 4 8 2 7 5 4 6 9 3 5 2 10 14 15 15 17 15 12 12 11 11 11 10 11 9 8
18 18 17 17 18 17 16 15 15 14 13 14 15 18 19 18 18 17 15 14 13 12 11 12 9 4 2 10 19 17 14 14 20 27 24 20 18 11 11 16 22 21 18 19 18 16 17 13 5 3 4 4 3 5 6 4 3 1 1 3 1 3 4 8 2 8 6 2 6 9 3 3 4 9 11 16 16 17 16 11 12 12 12 12 10 11 8 8
18 17 17 17 17 16 16 15 15 15 14 14 16 19 20 20 18 16 16 14 13 11 10 9 6 5 2 6 10 10 5 6 15 24 23 20 17 14 12 11 16 22 20 19 18 15 14 9 3 3 4 3 2 3 4 4 4 2 2 2 1 3 3 4 4 5 8 3 4 6 3 1 6 12 11 15 17 18 16 12 14 14 13 12 9 9 8 8
18 17 17 17 17 16 16 16 15 14 13 14 17 19 21 20 17 15 15 13 12 10 8 7 3 4 6 7 7 7 4 10 17 18 19 19 19 19 13 6 7 16 15 15 15 11 7 5 3 3 4 3 3 4 2 4 5 3 0 2 2 3 3 2 4 4 5 5 2 5 4 4 6 14 14 16 18 18 16 15 16 14 11 10 9 9 8 8
18 17 17 18 17 16 16 16 15 13 13 14 16 19 22 20 15 14 15 13 8 5 6 8 5 2 6 8 6 4 4 9 14 13 16 16 15 18 13 5 4 6 7 6 7 6 3 2 3 2 3 4 5 5 5 5 5 3 2 2 2 3 3 4 4 3 5 5 2 3 5 7 9 13 13 12 15 17 16 15 14 12 11 10 9 9 9 9
18 17 16 18 18 17 16 16 15 13 11 12 16 19 19 14 9 8 9 7 2 1 2 4 6 2 4 6 5 5 10 10 11 10 13 13 11 12 10 7 5 3 5 3 4 5 4 2 4 5 5 6 6 7 7 6 7 6 5 4 4 4 3 4 4 4 7 5 5 7 6 7 8 9 9 5 7 15 15 13 12 11 11 10 9 9 9 9
18 17 16 16 17 17 16 15 15 14 10 11 13 13 10 5 3 2 3 4 6 6 3 4 9 6 7 4 1 9 16 10 6 6 12 14 9 6 5 4 2 3 5 5 4 4 5 4 6 7 7 7 7 8 8 7 7 6 4 4 5 5 4 4 5 8 6 7 5 8 10 9 7 7 10 7 7 13 14 13 12 11 11 10 11 10 10 9
18 18 17 16 15 16 16 15 15 13 10 10 9 5 2 2 1 1 1 4 11 13 10 8 12 14 13 11 9 14 13 9 7 6 13 15 9 5 3 4 4 4 4 7 5 2 5 7 8 7 7 7 8 8 8 7 6 5 4 3 4 3 5 5 6 8 5 8 3 10 14 11 8 7 8 10 11 11 10 12 13 13 13 11 11 11 10 8
18 18 17 16 15 15 14 14 15 13 10 10 8 5 5 8 5 4 4 4 8 14 15 14 14 16 19 21 18 11 6 6 10 10 10 13 9 5 3 4 5 4 4 6 5 4 6 7 7 7 7 7 7 8 9 8 7 5 3 3 4 3 2 4 5 6 6 8 4 12 15 9 9 9 8 8 10 9 10 12 13 14 14 11 10 10 8 9
18 17 15 15 15 13 13 14 14 12 12 13 11 9 11 13 8 8 6 4 7 10 11 12 14 14 16 17 13 8 6 6 6 9 10 13 9 7 5 4 6 5 4 7 7 6 5 5 7 8 7 8 8 8 8 7 7 4 4 3 4 3 3 3 5 4 7 7 9 14 13 6 8 9 9 9 9 12 12 12 12 11 12 10 9 9 8 9
16 16 14 14 14 13 13 12 12 12 15 16 16 19 21 18 11 9 6 2 6 7 9 14 12 10 14 11 6 8 7 6 6 8 10 13 9 7 7 5 6 6 6 8 9 6 3 4 8 8 8 10 9 8 8 7 6 5 6 7 6 4 5 4 2 5 9 7 13 17 9 2 4 6 7 8 9 11 11 12 13 10 10 10 9 10 9 9
13 14 14 13 12 12 10 8 11 16 14 13 19 25 23 21 16 10 4 2 4 4 7 12 8 9 16 10 6 8 3 5 9 9 9 13 12 8 7 5 6 7 9 9 8 6 4 5 10 10 8 9 9 9 9 7 5 5 7 11 11 6 5 5 1 7 8 3 7 11 7 2 2 4 7 7 8 10 9 12 14 11 9 9 9 10 9 9
13 13 12 12 11 10 8 5 10 14 11 12 20 20 16 16 13 9 4 2 4 2 4 7 6 9 11 10 8 5 2 4 10 13 13 16 17 11 7 5 4 7 9 7 4 4 5 6 10 11 9 9 9 9 9 8 6 5 6 11 11 7 6 6 3 6 6 5 8 5 6 3 3 3 6 7 10 11 10 11 12 11 9 8 8 8 8 9
11 12 10 9 10 11 10 3 4 8 7 9 14 15 14 16 9 10 4 3 3 3 6 5 5 7 8 12 12 8 3 4 6 10 14 19 17 11 9 7 5 7 7 6 4 4 7 9 10 11 10 9 9 9 10 9 7 5 6 8 8 7 8 8 6 7 3 5 7 1 5 6 3 5 6 7 10 10 10 11 10 10 10 9 8 8 9 8
8 9 8 7 9 14 12 2 3 2 5 8 15 16 18 18 5 11 2 2 2 2 5 4 6 6 6 12 13 8 5 3 5 6 13 24 19 9 9 8 6 8 7 8 6 3 8 11 12 13 10 8 9 9 10 10 7 8 6 7 7 8 9 8 7 6 3 6 6 2 6 6 2 5 7 7 8 8 9 10 11 11 11 10 10 10 10 9
4 5 5 7 9 14 14 9 8 7 9 13 17 18 21 17 2 7 1 1 3 2 4 3 6 5 4 10 11 9 5 1 3 3 9 21 16 6 7 7 6 9 9 8 6 4 7 10 11 12 10 8 9 10 11 10 8 7 6 5 4 5 6 8 6 5 6 6 7 9 8 5 2 5 8 8 8 8 8 9 11 12 11 11 11 11 10 9
3 2 4 7 9 10 10 12 12 11 12 14 16 19 19 9 3 3 0 3 3 2 3 2 4 4 7 10 8 10 7 3 3 3 6 9 10 6 5 5 5 6 7 6 6 6 6 7 8 9 9 9 9 10 11 12 10 6 5 6 2 3 2 3 2 4 5 4 8 13 10 5 4 6 9 7 6 11 11 9 11 12 11 11 10 10 9 8
4 2 3 7 8 6 4 5 5 10 12 13 16 15 10 3 2 2 3 2 2 0 2 2 4 5 10 11 8 8 8 4 3 3 5 5 7 6 5 5 4 4 6 6 7 8 7 8 8 6 7 9 9 10 10 9 10 7 4 4 3 1 3 1 2 3 5 5 7 10 7 4 4 6 9 6 3 11 13 11 14 14 12 11 9 10 9 8
4 3 0 4 5 3 4 5 7 14 15 13 11 6 2 3 1 3 3 5 2 1 1 3 4 5 10 10 9 8 6 4 3 3 6 6 5 6 6 6 5 4 6 6 6 7 8 8 7 6 8 11 10 8 7 6 8 8 5 4 4 1 2 3 2 2 4 5 5 9 6 1 2 2 5 6 7 11 10 9 13 14 13 12 10 10 9 7
5 5 4 4 5 6 9 9 10 14 16 11 5 1 3 2 2 4 3 4 2 3 4 1 4 7 10 8 8 8 5 4 3 3 6 7 6 6 8 6 6 7 4 4 5 6 7 6 7 8 7 10 11 8 6 6 6 8 6 5 5 4 4 4 3 1 3 3 2 5 7 1 1 2 0 6 10 10 10 9 10 12 12 12 10 9 8 8
8 8 7 6 7 10 10 8 8 12 13 8 2 2 3 3 2 1 2 2 3 5 6 4 4 9 10 8 7 7 5 4 4 3 5 7 6 6 9 8 7 7 4 5 5 6 8 7 7 9 6 8 13 10 8 6 5 7 5 6 5 5 5 4 3 3 4 3 4 3 3 1 0 1 3 8 10 9 10 10 10 11 10 9 8 8 8 7
9 8 8 8 8 9 7 4 6 9 8 3 1 2 3 4 1 1 0 3 4 5 9 9 3 9 8 6 6 7 5 3 5 4 3 7 7 6 9 9 8 6 4 5 4 4 9 7 6 8 6 9 12 10 8 7 4 5 3 6 5 6 5 2 4 5 5 4 3 3 1 1 2 4 5 10 11 11 11 10 11 11 9 9 7 6 7 6
8 7 6 8 8 5 2 3 4 2 2 1 1 2 2 3 1 2 3 5 5 6 10 9 2 7 5 5 5 8 7 2 4 4 2 6 8 8 9 7 8 9 5 4 3 4 6 6 5 6 7 9 10 9 10 9 6 3 3 4 5 6 7 4 3 2 4 5 1 1 3 2 2 3 6 11 12 12 11 10 11 10 9 9 7 6 6 6
8 7 4 7 7 2 1 5 5 3 1 2 2 2 3 3 3 4 5 7 9 8 6 4 1 3 5 6 5 9 9 4 3 4 2 4 6 8 10 7 8 11 8 5 2 2 5 3 6 7 9 10 8 9 9 8 7 5 5 6 4 4 3 4 3 0 3 4 1 1 4 6 3 2 6 12 13 12 11 11 11 10 9 9 7 6 6 6
10 7 5 7 5 2 4 7 6 2 1 1 1 2 2 2 4 5 7 9 10 6 2 2 2 1 4 6 5 8 10 6 4 4 3 4 3 7 10 7 7 10 10 7 3 2 3 2 6 7 10 8 6 9 8 4 3 5 6 6 5 4 2 1 4 3 2 3 0 1 5 5 3 4 9 13 14 13 11 11 11 10 9 8 8 7 7 6
9 4 4 3 4 8 8 9 6 1 1 1 2 2 2 3 6 9 11 11 8 3 1 2 2 2 1 3 4 7 9 7 5 3 3 3 3 7 10 7 6 10 10 8 5 3 1 2 3 6 8 8 5 7 8 4 1 4 4 2 2 4 4 3 4 3 5 4 2 4 5 3 3 6 12 15 15 15 13 11 11 11 10 8 7 7 6 5
5 1 3 3 9 13 11 9 4 0 1 1 1 2 3 5 7 10 13 12 7 2 1 2 2 2 2 1 1 3 7 8 6 3 3 5 4 6 9 8 7 10 12 9 6 3 1 3 2 5 4 8 5 5 7 7 4 3 3 2 1 1 2 3 2 2 5 5 3 4 4 4 2 5 11 15 15 14 13 12 10 10 10 8 7 7 6 5
1 2 2 5 13 14 10 6 1 1 1 2 2 3 5 5 8 11 13 12 7 1 2 3 2 2 2 2 2 2 2 5 6 4 2 5 6 3 7 10 8 8 10 9 7 4 2 3 3 3 3 6 4 3 8 9 7 6 5 4 4 3 4 4 2 2 3 5 5 5 4 4 2 2 7 13 12 12 12 12 11 11 11 9 7 7 6 4
1 2 2 8 16 15 7 2 1 1 1 2 2 4 6 6 9 11 11 10 7 2 2 3 4 3 2 3 2 3 1 2 6 5 3 5 8 6 7 11 11 10 7 6 7 6 3 3 3 3 4 5 4 5 9 9 8 7 4 4 4 4 5 6 4 3 2 4 3 3 2 2 1 2 6 10 11 11 13 13 12 10 9 9 8 6 5 4
1 1 1 6 13 11 3 1 1 2 2 3 4 7 7 7 8 10 9 8 6 3 1 3 4 3 2 1 1 2 3 1 3 6 4 5 9 11 10 10 13 12 7 4 6 5 3 2 3 3 3 2 3 3 5 6 7 5 3 3 5 4 4 6 5 4 4 4 3 3 1 2 1 1 5 10 12 12 12 13 13 10 8 9 8 6 4 3
1 1 0 4 8 6 2 1 1 2 2 3 6 8 8 8 7 8 9 7 6 3 1 3 3 3 2 1 0 1 1 1 1 3 4 4 7 12 13 10 12 12 8 5 5 5 4 3 3 2 1 1 1 2 2 3 4 3 3 3 4 5 5 3 3 4 3 4 5 5 2 2 1 4 8 12 14 13 11 12 13 12 10 9 8 6 4 4
1 0 1 1 4 3 3 1 2 3 4 5 7 8 7 5 4 6 9 9 8 5 2 4 4 2 2 1 1 3 2 3 1 1 2 3 3 8 13 13 12 12 9 8 8 6 5 3 3 4 4 4 4 4 5 5 3 2 3 5 5 6 7 4 3 5 3 4 5 5 4 2 4 9 13 14 14 14 13 13 12 11 11 10 8 6 5 6
0 2 1 1 1 2 3 2 2 2 3 4 4 6 5 4 4 7 8 8 9 7 5 5 5 2 1 1 2 2 2 2 2 1 2 2 3 5 11 15 13 13 11 12 10 6 3 3 3 6 6 6 6 7 5 6 5 4 4 5 5 6 6 5 5 4 5 5 3 3 7 9 8 12 15 15 15 15 13 13 12 11 11 10 8 7 7 7
1 1 1 2 1 2 3 4 3 3 4 3 3 4 6 7 6 5 4 4 5 4 3 3 3 0 1 2 2 2 4 3 1 2 3 3 3 5 7 13 15 16 14 11 9 5 4 3 4 5 6 6 6 5 2 5 6 6 5 6 6 7 7 6 5 6 8 7 2 4 13 16 12 14 17 16 16 16 14 13 13 12 11 10 9 9 9 9
1 1 2 2 1 2 3 3 4 6 7 6 3 3 6 7 5 3 3 4 4 4 2 2 4 4 5 4 3 1 4 5 4 4 5 4 4 7 5 5 10 14 12 8 6 5 6 4 4 4 5 4 4 2 4 7 3 2 3 2 4 7 9 7 4 4 8 8 6 10 15 15 14 16 17 16 16 16 15 14 13 12 12 12 12 12 11 10
1 1 2 1 1 3 3 3 4 5 7 6 3 3 4 5 4 3 3 4 6 5 2 2 5 7 7 5 4 1 2 3 3 3 5 4 4 6 5 2 2 5 7 7 6 4 4 3 3 4 5 6 6 6 8 9 7 7 8 5 2 4 7 6 2 3 4 5 11 18 13 7 7 10 11 12 12 13 13 12 12 13 13 13 13 12 11 10
0 1 2 2 2 3 3 3 2 2 3 3 3 3 3 2 2 4 4 2 3 5 3 3 4 5 4 2 3 1 2 2 2 0 2 2 3 3 2 1 4 5 2 4 5 3 3 3 3 5 6 6 6 7 11 11 10 9 9 10 8 7 8 8 6 6 9 8 13 18 12 5 5 8 11 11 11 12 13 13 13 13 13 13 13 12 11 11
3 3 2 1 3 2 2 3 2 1 2 2 2 2 2 2 3 5 5 3 4 4 3 3 5 4 2 1 0 3 5 5 4 4 4 3 1 1 2 2 3 4 4 2 1 2 4 2 0 5 6 3 4 5 10 11 12 9 8 10 10 5 5 5 3 3 8 13 15 14 8 5 7 11 12 11 11 13 15 14 13 12 12 14 13 12 12 11
6 4 2 1 2 2 2 3 2 1 1 2 2 2 3 4 4 4 4 3 4 5 3 3 4 4 3 3 4 6 5 5 5 4 4 4 3 4 5 3 3 3 2 2 2 1 3 5 2 4 5 1 6 2 4 8 8 4 4 5 5 2 3 6 5 4 10 16 13 8 7 9 13 15 15 14 13 14 14 13 12 12 13 13 13 13 12 10
Wind_Direction
308 309 310 311 311 313 314 316 320 320 322 321 319 320 318 318 316 316 314 312 312 312 313 315 316 320 320 322 325 324 324 319 310 306 265 243 243 233 228 223 223 255 233 225 231 226 231 219 215 195 176 313 197 230 228 191 188 172 180 204 221 230 225 210 228 247 279 300 291 303 309 131 112 95 91 66 77 89 79 71 76 76 89 100 107 118 124 126
300 302 305 307 308 309 311 313 315 318 320 319 320 319 317 317 316 314 313 313 314 312 313 315 316 320 320 324 325 324 326 317 308 291 255 245 247 238 230 228 219 227 213 206 219 210 176 209 222 184 129 328 240 235 242 219 177 165 181 204 221 222 236 231 256 283 298 292 291 308 307 178 132 128 122 96 92 96 90 84 91 93 99 102 110 119 122 125
293 295 297 301 304 305 308 309 310 315 317 318 318 318 318 316 317 316 313 314 315 315 315 316 316 319 322 324 325 325 324 316 305 269 261 251 240 236 222 216 208 206 208 203 216 208 194 247 280 178 143 216 258 244 260 263 226 196 189 218 245 236 275 274 275 286 282 280 296 308 310 315 140 135 121 118 110 106 112 120 115 116 122 119 122 123 121 124
285 287 290 293 297 299 302 304 307 311 312 315 315 317 316 314 316 315 314 314 315 318 316 317 320 320 323 324 322 325 324 311 278 256 267 253 229 227 214 206 200 204 212 218 230 220 224 282 338 288 170 221 255 232 242 245 237 227 182 193 237 246 290 276 274 281 282 284 285 302 339 8 39 112 124 124 110 109 130 140 137 135 136 131 128 125 122 124
281 280 281 284 288 292 295 299 301 305 309 311 313 314 313 312 314 314 315 314 315 319 318 319 320 322 325 323 321 321 324 294 289 285 284 255 221 212 207 200 193 204 210 222 235 229 243 255 13 311 203 232 235 188 243 234 212 268 231 198 221 234 272 273 275 280 288 305 320 351 7 338 341 96 133 134 128 146 145 140 137 135 137 134 129 125 124 126
275 273 274 278 280 284 288 293 297 302 306 308 310 311 311 310 310 312 312 311 314 317 318 321 321 326 326 323 324 310 260 220 308 349 346 293 217 202 199 195 192 205 211 219 224 213 229 167 144 202 200 234 215 199 247 245 174 242 272 238 231 226 239 264 283 274 276 358 347 353 342 327 33 60 119 127 125 135 133 135 133 130 133 129 124 125 128 134
272 272 271 272 273 278 281 287 292 298 301 305 308 308 309 309 309 309 309 311 313 314 317 321 322 328 328 331 338 201 207 276 278 343 15 21 189 195 193 192 193 203 211 211 202 194 189 141 174 192 187 237 219 212 238 252 193 213 254 253 241 227 230 250 270 271 276 358 320 321 356 29 69 67 82 100 108 120 126 132 130 128 129 123 121 127 135 140
270 272 271 269 268 271 275 281 287 293 297 302 305 306 306 306 307 306 307 310 311 315 318 319 327 330 331 338 354 128 269 249 240 260 356 7 29 185 189 191 195 203 208 207 198 187 170 166 203 182 196 232 219 228 225 238 244 217 231 245 242 225 234 236 235 259 278 315 330 3 16 46 94 99 100 108 115 123 127 128 127 126 123 118 122 129 134 137
267 268 269 269 268 267 270 276 281 287 294 299 302 303 302 302 306 306 307 309 310 316 317 321 328 329 332 336 343 344 248 234 231 241 294 304 337 177 189 192 198 206 209 216 209 184 171 190 206 184 209 242 235 249 209 174 256 221 213 233 236 230 239 213 208 238 252 289 16 6 0 80 101 93 96 116 123 124 124 124 124 121 116 115 122 127 130 132
267 264 265 268 267 265 266 270 276 283 290 295 299 299 298 301 303 304 305 306 309 312 315 324 325 330 340 339 175 226 256 235 231 253 281 274 230 186 191 196 202 206 210 223 210 190 199 205 195 173 229 264 247 254 201 169 233 248 233 245 245 246 248 167 192 241 246 297 72 12 302 102 117 94 97 129 128 126 121 118 120 115 113 116 119 123 127 127
274 264 261 263 264 264 264 265 270 280 286 291 296 296 297 298 299 301 303 304 308 309 315 321 324 333 333 336 186 223 251 154 152 112 4 266 227 198 196 201 204 205 206 217 215 207 213 223 221 60 260 267 264 285 295 240 243 270 269 279 274 266 263 189 188 236 214 302 137 144 282 13 77 122 136 150 133 127 122 117 118 112 112 115 116 120 121 117
283 272 264 261 262 263 263 263 266 274 282 288 292 293 292 292 294 297 299 303 306 307 315 317 326 333 316 321 234 225 191 137 138 17 31 242 252 231 219 212 208 209 204 201 222 218 218 229 227 105 245 306 307 279 277 265 264 259 231 249 283 293 273 235 197 215 176 195 170 120 0 330 31 130 138 137 127 121 118 119 119 115 114 115 114 116 111 112
287 282 270 263 262 260 260 260 262 268 276 284 289 290 288 287 290 296 299 301 303 305 310 313 321 323 319 286 240 233 224 227 281 306 287 264 280 263 248 230 215 215 210 206 223 223 222 229 215 209 253 330 294 271 293 306 325 276 220 158 275 337 301 252 188 181 174 187 173 112 124 292 108 135 130 124 127 117 113 119 121 119 117 116 114 110 105 112
286 284 275 267 262 259 259 258 260 263 270 281 287 290 288 286 289 292 296 298 301 303 303 306 307 308 301 257 261 256 258 271 285 289 273 265 281 280 268 242 220 216 215 215 225 227 227 231 223 243 268 222 250 293 313 319 332 295 301 46 218 135 270 278 200 156 180 208 146 110 175 258 135 141 134 129 133 121 117 121 121 121 117 116 111 104 101 100
285 283 280 273 266 262 260 258 259 260 267 279 283 287 289 290 292 292 296 297 297 297 297 299 281 266 302 268 274 283 285 285 279 269 259 263 273 273 268 241 218 216 218 220 224 226 228 227 216 237 268 240 239 294 304 314 333 348 318 318 344 171 253 299 297 160 182 219 120 115 185 237 149 169 151 134 137 127 124 129 125 122 116 113 103 100 101 85
285 283 284 280 272 265 261 257 258 260 266 277 281 284 288 292 294 296 298 294 294 292 290 297 251 197 249 275 288 306 296 250 253 254 252 256 253 241 253 257 224 213 213 219 223 226 224 214 194 205 235 265 227 239 292 316 320 0 141 238 258 188 237 307 301 201 187 162 109 143 170 345 155 168 153 137 139 129 125 130 124 120 115 109 100 97 95 81
284 281 283 282 274 267 264 257 255 260 264 275 282 284 291 298 298 300 298 290 296 288 258 264 245 197 247 276 305 309 245 226 241 247 245 245 242 236 245 289 238 202 199 214 219 221 213 191 193 206 212 228 184 170 237 262 265 316 53 200 230 204 191 241 293 274 184 151 161 172 119 42 147 155 147 145 141 128 127 129 123 120 109 100 95 90 83 81
284 280 279 282 275 266 264 257 251 255 261 273 280 284 293 298 296 294 286 281 296 293 247 257 263 218 253 268 277 278 275 249 247 248 243 240 239 236 230 255 263 189 181 209 215 206 177 170 184 207 229 207 184 167 195 221 206 215 200 183 231 216 197 206 242 260 171 159 154 135 79 79 138 149 142 145 136 125 126 124 119 112 100 94 90 88 89 88
284 281 279 283 277 265 262 259 252 251 258 270 279 290 299 300 293 281 267 263 266 200 229 226 207 186 283 260 222 273 309 282 253 252 245 235 229 231 224 236 265 176 169 186 214 200 162 160 180 199 226 205 192 182 190 203 183 187 192 182 195 198 230 222 232 241 164 134 71 91 80 84 123 134 118 118 120 116 116 113 110 103 96 95 94 96 93 85
284 280 277 278 272 262 258 258 254 251 253 264 283 306 313 301 292 277 237 222 218 231 267 200 201 244 297 286 265 339 338 318 266 243 239 231 206 201 216 213 219 192 185 175 200 199 152 188 211 203 213 202 192 181 182 201 195 193 196 213 213 198 236 222 230 250 163 111 51 89 84 64 71 93 108 128 126 108 107 107 104 100 100 100 101 98 89 84
285 278 274 273 269 259 253 254 251 244 244 256 275 305 310 202 156 29 332 231 230 238 260 246 221 240 262 272 311 342 346 322 295 268 244 231 188 157 207 163 159 215 207 174 181 183 165 205 219 202 203 196 189 177 177 208 222 217 204 233 256 221 240 232 224 244 134 98 74 93 82 61 61 74 99 120 113 100 105 109 106 107 109 107 102 97 93 93
281 276 271 269 268 256 250 250 245 236 235 248 250 235 244 240 236 327 319 268 252 235 239 249 241 247 256 263 281 302 308 286 292 291 248 215 180 165 189 152 165 208 201 179 178 186 199 221 214 195 194 182 186 185 184 214 228 223 207 228 265 236 247 289 255 219 118 99 130 101 88 72 69 75 79 92 103 103 105 106 109 114 114 109 105 102 101 94
279 277 270 268 266 253 246 246 244 237 228 231 231 226 246 251 264 327 317 275 282 248 223 235 241 248 256 262 262 250 251 250 264 278 232 196 181 176 185 170 177 199 204 196 188 182 203 223 200 188 182 174 188 193 187 217 232 213 200 215 243 198 135 300 273 193 107 108 134 107 93 88 77 76 73 77 98 103 102 100 96 100 105 105 104 101 99 93
275 275 272 268 261 251 245 239 238 237 232 234 239 244 255 262 275 317 317 268 278 264 224 220 223 237 245 250 226 193 217 229 224 261 227 193 179 175 190 184 175 201 217 205 192 189 222 201 178 183 184 176 183 195 190 209 235 219 204 215 228 192 158 213 256 85 77 96 126 107 83 50 83 95 94 91 98 98 99 96 87 85 90 93 92 91 91 92
270 268 267 262 255 248 231 214 226 231 233 238 248 257 267 272 272 272 281 289 268 265 226 213 207 241 237 220 200 190 201 240 224 243 230 193 179 171 189 189 179 206 210 204 193 194 242 202 172 184 194 180 181 201 199 188 214 239 223 221 222 195 173 211 169 92 90 128 157 119 98 316 339 119 130 123 111 105 103 100 100 102 95 92 92 92 92 89
270 264 260 250 244 231 196 194 230 224 226 241 255 272 283 284 274 239 224 309 271 241 170 178 178 221 214 177 179 172 88 278 229 229 232 204 186 173 185 190 184 206 197 194 203 189 220 206 178 183 192 187 190 211 210 182 187 238 226 215 213 187 191 222 177 132 137 182 206 171 122 162 265 198 164 143 124 118 114 108 112 114 105 104 100 97 101 95
274 266 261 248 229 197 172 188 234 199 204 252 282 300 303 300 267 199 198 349 272 205 148 162 174 178 171 164 165 147 154 253 207 218 225 200 184 174 188 188 173 200 183 173 216 188 186 197 188 183 187 193 200 214 210 180 179 229 211 190 188 176 199 225 193 176 184 164 187 235 104 136 203 203 182 152 128 123 122 117 119 123 118 112 107 103 103 100
279 267 260 247 221 193 183 232 322 211 228 282 305 306 312 318 259 176 149 9 231 166 132 179 193 170 155 158 160 173 226 224 167 207 201 185 181 172 192 198 174 190 188 183 205 174 175 193 192 186 192 203 204 215 205 175 194 237 211 178 174 171 196 221 203 185 155 144 175 190 116 128 186 182 174 161 141 137 139 134 131 130 125 115 113 110 102 100
295 271 243 223 210 198 204 246 286 290 293 305 306 301 313 324 218 155 60 235 221 177 125 158 186 178 137 139 162 207 248 327 183 187 161 175 183 175 189 196 171 189 206 198 189 176 185 195 192 188 201 209 202 215 210 185 207 237 215 200 157 144 200 215 197 162 131 149 191 195 165 130 150 183 173 168 170 170 155 142 140 133 127 121 117 116 108 105
342 299 204 194 186 189 213 244 266 291 308 308 306 308 319 329 147 131 159 225 247 216 123 139 182 167 142 141 168 212 225 285 255 155 123 169 183 168 170 180 170 192 212 203 196 210 203 194 199 198 202 205 196 212 216 199 208 226 219 221 156 93 244 221 158 106 129 184 206 197 189 146 147 198 187 178 183 175 161 147 149 139 129 127 122 121 116 109
18 28 170 182 175 174 209 238 294 332 330 312 308 314 328 14 100 158 183 254 284 168 89 148 168 142 148 154 171 198 206 258 277 166 149 166 178 174 169 181 189 192 203 205 208 225 220 202 209 207 195 193 193 213 222 205 207 221 219 193 163 333 302 272 5 75 141 223 224 189 181 145 160 203 202 199 161 160 162 152 150 145 134 132 127 124 118 109
11 352 245 199 198 216 260 271 325 338 331 320 318 323 48 76 340 216 238 321 346 52 1 170 163 146 158 169 183 187 186 221 253 199 170 159 178 195 187 187 177 171 200 203 190 212 227 221 213 207 199 192 189 204 221 212 203 214 214 155 143 207 229 207 234 165 179 241 231 164 143 116 196 222 209 179 143 149 157 146 144 140 132 131 127 124 118 110
336 311 305 261 254 267 274 285 316 327 323 320 324 31 96 128 209 218 260 323 1 329 327 214 167 157 159 172 190 187 183 199 207 195 184 168 167 196 211 209 164 152 179 179 162 187 223 250 228 207 204 194 189 189 202 214 198 200 202 157 148 153 170 211 216 150 192 238 280 151 146 150 305 341 354 142 137 140 140 134 134 128 124 126 124 121 114 107
335 320 305 281 272 271 273 285 309 317 321 326 344 83 126 181 218 192 219 290 317 318 329 317 183 158 162 183 193 185 188 214 197 178 188 176 167 194 211 213 179 149 137 161 172 183 200 238 228 205 204 187 192 195 184 175 174 196 181 135 156 164 154 197 189 163 190 176 9 22 146 210 259 44 64 116 120 120 124 121 116 114 114 117 114 108 105 102
334 334 319 303 291 276 272 275 286 303 317 327 11 91 158 198 272 29 322 319 320 321 331 323 209 157 167 189 196 198 196 216 204 197 207 183 180 194 201 210 197 167 139 166 194 191 195 232 230 200 208 188 187 194 174 153 171 209 151 125 181 182 143 147 173 171 169 135 32 16 113 9 66 88 92 111 112 112 116 112 109 109 107 107 103 98 99 98
335 343 332 312 306 293 255 238 242 273 321 308 95 117 194 228 304 347 332 330 319 323 337 332 171 149 164 174 191 208 204 216 195 194 239 190 179 189 198 206 196 188 180 167 202 189 180 247 255 192 208 204 184 180 177 176 183 186 160 173 189 154 126 118 168 169 109 110 117 196 129 102 96 98 113 120 118 119 120 114 112 109 105 105 104 104 105 104
348 348 319 283 291 317 177 210 194 155 344 339 122 169 236 276 330 330 311 310 305 310 338 334 183 140 165 170 182 193 188 208 201 177 226 208 184 188 198 206 190 193 197 170 204 203 148 233 255 197 206 224 194 172 183 187 163 153 199 204 150 118 111 104 137 252 65 109 210 226 152 159 161 153 142 134 131 137 133 122 118 113 111 112 112 116 114 113
352 344 300 273 253 193 184 178 161 154 342 37 194 245 249 271 316 307 289 294 297 299 331 292 293 41 149 165 186 182 173 187 192 170 206 228 220 191 190 204 198 196 200 185 213 268 137 183 259 216 203 216 192 171 189 211 143 139 183 189 143 157 216 107 144 182 117 116 168 179 170 181 176 166 158 151 151 151 140 130 129 124 122 120 118 122 118 116
356 353 316 328 151 170 178 158 145 185 17 101 227 262 272 273 285 285 281 288 300 311 292 249 297 345 142 171 192 179 170 179 177 173 198 204 235 212 190 195 205 201 202 189 195 244 169 143 258 244 197 177 175 181 186 202 49 90 136 183 161 159 173 159 157 155 136 144 162 158 178 214 198 175 167 163 161 155 146 142 139 131 127 125 123 124 121 126
11 31 334 51 139 163 164 148 137 59 115 144 249 256 284 288 283 283 289 297 310 337 247 261 318 340 321 284 250 167 173 182 177 184 205 189 210 226 202 190 195 205 205 200 199 223 214 161 231 278 211 170 195 209 176 169 159 122 137 189 208 124 128 147 167 128 125 145 152 146 192 236 216 184 172 165 162 155 147 142 135 131 129 126 124 128 134 140
30 47 20 132 154 159 142 125 91 63 168 255 262 263 281 290 285 287 298 305 306 263 200 249 279 306 306 293 328 28 163 182 180 181 188 187 185 210 215 200 193 201 201 206 214 205 184 178 200 272 225 181 210 203 161 164 165 151 159 190 179 145 123 132 212 259 109 130 156 153 187 227 223 198 173 163 158 150 141 133 129 131 129 125 128 136 141 139
65 52 105 147 158 157 133 84 255 185 217 253 254 280 289 290 284 287 298 306 304 275 186 227 257 250 237 249 315 358 356 181 188 182 158 187 192 203 224 206 199 202 192 197 212 193 146 132 163 229 226 199 214 192 164 158 147 140 163 186 156 135 133 140 191 241 84 98 131 122 150 206 194 184 168 157 149 141 136 130 126 128 125 125 132 136 134 129
77 321 205 154 161 164 150 346 242 217 247 263 272 283 282 273 273 282 293 302 308 310 215 227 244 225 230 283 11 353 340 28 187 184 168 194 207 214 217 200 197 205 195 189 202 184 157 144 167 232 270 273 269 233 177 151 135 145 184 164 140 155 163 153 172 178 127 142 143 89 112 223 210 179 151 139 132 128 131 129 125 127 127 129 136 137 129 116
54 286 268 174 182 198 254 301 307 278 282 293 289 282 271 260 265 285 300 303 300 307 277 251 236 200 229 274 231 269 290 75 121 181 181 211 223 219 216 206 200 202 198 189 180 179 203 196 144 144 91 22 306 276 249 216 175 169 178 154 152 163 160 156 151 117 118 195 166 125 171 238 157 127 127 126 124 122 129 132 131 136 140 140 141 134 114 101
328 76 11 236 201 224 261 288 336 317 310 311 297 285 276 264 269 289 297 293 281 270 265 277 264 203 211 269 281 275 222 158 162 281 222 246 256 222 214 209 205 205 203 187 166 163 188 176 119 137 155 167 184 203 221 209 203 214 160 146 143 154 161 162 135 127 163 202 153 135 170 181 127 129 130 131 131 130 136 140 137 138 141 142 138 126 114 110
48 93 21 338 244 247 257 281 302 285 295 307 293 285 289 302 306 291 284 277 268 250 228 252 261 215 147 32 17 301 264 199 184 15 340 294 291 241 210 200 202 210 201 178 160 135 133 185 151 136 158 179 191 217 216 164 166 196 167 149 142 149 156 135 127 166 183 160 145 160 148 138 139 144 143 143 142 140 144 144 138 139 139 136 129 123 121 116
85 102 158 162 200 244 259 276 259 238 258 276 283 291 299 311 317 305 283 264 272 266 219 243 276 59 38 12 37 305 292 317 58 47 3 308 288 286 225 193 194 206 197 173 167 130 100 202 206 120 133 164 177 217 209 141 166 182 166 172 158 131 131 144 172 193 163 140 175 188 146 143 159 164 156 156 151 146 148 147 144 145 142 135 130 129 126 120
170 230 229 190 210 218 223 250 245 242 248 247 255 274 283 295 305 305 286 287 315 343 30 334 339 28 36 26 51 312 310 353 18 18 6 334 324 331 300 204 190 200 190 164 172 148 115 183 208 112 100 108 113 105 82 95 108 78 85 200 189 149 152 172 213 207 163 154 172 172 159 156 167 168 161 157 153 146 146 146 145 143 138 134 135 134 130 124
172 258 281 284 262 219 215 243 250 249 249 245 248 244 253 280 294 304 314 330 333 337 30 9 355 33 42 42 72 60 341 13 13 358 359 345 341 343 331 331 294 231 182 160 180 166 128 178 190 121 83 52 54 70 79 85 78 52 35 10 12 128 138 138 97 65 95 120 145 150 146 132 144 153 145 141 140 136 136 139 141 140 139 139 138 136 132 129
92 299 311 339 305 256 241 272 276 255 261 258 254 252 251 276 321 332 330 334 311 319 4 18 352 24 40 55 93 115 223 178 140 328 339 357 358 337 315 280 312 324 44 153 193 167 126 201 201 116 78 24 24 65 80 87 88 73 41 22 30 63 87 99 110 93 74 82 122 130 119 93 117 126 123 130 134 133 137 141 143 143 143 141 139 135 134 132
333 295 304 341 303 295 286 298 323 353 301 264 234 270 296 310 346 342 319 256 224 260 302 322 326 344 0 10 22 237 224 189 167 189 201 181 135 269 258 262 298 341 21 53 193 119 114 144 62 83 86 354 339 63 90 91 83 72 41 14 7 25 96 114 125 129 122 122 124 124 125 145 147 132 128 135 139 139 144 146 147 148 147 145 142 139 137 135
342 324 3 39 283 323 343 305 318 35 300 253 236 291 302 295 318 338 320 290 247 234 249 325 339 332 327 316 267 245 226 193 195 207 204 209 222 211 221 268 356 40 68 80 57 54 122 121 96 89 105 307 303 317 102 83 71 52 357 350 343 343 113 104 72 90 131 133 137 152 161 151 143 139 139 144 148 149 151 152 152 151 149 145 142 139 137 134